EHI
0 0 0 0 0 0 0 0 0 0 0 0 0 0 1 3 2 1 1 1 5 13 20 26 30 36 45 48 47 45 40 34 28 26 27 28 30 29 27 26 27 25 21 18
0 0 0 0 0 0 0 0 0 0 0 0 0 0 2 3 3 2 2 3 7 14 20 25 30 35 42 45 45 43 39 33 27 25 26 27 28 27 26 26 26 24 21 18
0 0 0 0 0 0 0 0 0 0 0 0 0 1 3 4 4 3 3 4 9 14 19 24 28 31 35 39 41 39 37 33 27 26 27 27 26 25 25 25 24 22 20 19
0 0 0 0 0 0 0 0 0 0 0 1 1 1 4 4 4 3 4 5 8 11 16 21 25 26 28 31 35 36 36 33 28 26 26 26 24 23 23 23 24 22 20 19
0 0 0 0 0 0 0 0 0 0 0 0 1 1 3 3 4 5 5 6 8 9 13 18 23 24 23 25 29 33 35 32 28 25 24 24 22 20 19 22 24 24 22 20
0 0 0 0 0 0 0 0 0 0 0 0 0 1 2 3 5 7 7 7 8 10 12 16 20 22 21 20 24 29 32 32 28 24 22 22 21 21 20 20 22 23 22 20
0 0 0 0 0 0 0 0 0 0 1 0 0 1 2 3 5 8 8 7 9 10 11 13 17 20 20 19 21 25 29 30 27 24 23 22 22 22 20 19 19 21 20 18
0 0 0 0 0 0 0 0 0 0 0 0 0 1 2 3 5 8 8 8 9 10 11 11 13 16 19 20 22 24 27 28 26 23 23 23 22 20 19 19 19 19 17 14
0 0 0 0 0 0 0 0 0 0 0 0 0 0 2 3 5 7 7 6 7 8 9 10 10 12 15 19 22 24 27 27 24 22 21 21 21 20 19 19 19 19 18 15
0 0 0 0 0 0 0 0 0 0 0 0 0 0 2 3 5 6 6 5 3 4 5 7 9 11 13 15 18 21 25 27 25 21 20 19 20 20 17 17 17 18 17 15
0 0 0 0 0 0 0 0 0 0 0 0 0 0 1 3 5 6 6 5 2 1 2 4 7 10 11 13 15 19 23 24 22 19 17 17 18 17 14 12 13 13 12 11
0 0 0 0 0 0 0 0 0 0 0 0 0 0 1 3 5 6 6 5 3 2 2 3 7 9 10 11 14 18 20 19 15 13 14 15 14 13 11 9 9 8 7 5
0 0 0 0 0 0 0 0 0 0 0 0 0 0 1 3 5 6 7 5 3 3 4 5 7 8 9 10 13 16 17 15 12 11 13 13 12 9 8 8 7 5 4 3
0 0 0 0 0 0 0 0 0 0 0 0 0 0 2 4 6 8 8 7 5 5 6 6 8 9 9 9 11 13 15 14 13 12 12 13 11 9 8 7 6 4 3 3
1 0 0 0 0 0 0 0 0 1 1 1 0 1 2 5 7 8 9 8 6 5 5 6 10 11 10 10 10 12 13 14 14 12 10 11 12 10 8 7 6 5 4 4
2 1 0 0 0 0 0 0 0 1 2 1 0 1 3 6 9 12 12 10 8 6 5 6 11 13 12 11 11 11 11 11 11 9 7 8 10 10 9 6 5 5 5 5
2 3 1 0 0 0 0 0 0 1 1 1 1 2 4 8 12 16 16 12 10 9 9 11 13 14 14 13 12 10 8 8 8 7 5 5 7 8 9 6 4 5 6 5
3 4 2 0 0 0 0 0 0 0 1 2 2 3 5 9 12 15 15 13 13 13 14 16 16 15 14 13 11 8 6 6 6 5 4 4 5 7 8 6 5 6 6 5
4 4 2 0 0 0 0 0 0 1 4 5 3 2 4 8 11 12 14 15 16 17 17 17 15 13 13 11 8 6 5 4 4 4 4 4 5 5 6 7 7 7 6 6
2 3 2 0 0 0 0 0 0 2 4 5 3 2 5 8 10 11 14 16 19 19 17 15 13 11 11 9 7 5 4 4 3 3 4 4 4 4 5 8 9 8 7 6
1 1 1 1 0 0 1 1 2 4 5 5 3 3 5 8 9 11 14 17 20 19 15 12 11 11 12 10 8 6 5 4 4 3 3 3 4 5 6 8 10 9 7 7
0 0 1 2 1 1 2 4 5 7 7 5 3 2 4 7 9 11 13 16 17 15 12 11 11 13 14 12 10 8 7 6 5 4 4 4 5 5 6 8 9 9 7 6
0 0 1 1 1 1 3 4 6 7 5 3 1 1 3 7 9 9 11 12 10 8 9 10 12 13 14 13 11 11 10 8 6 5 5 6 6 6 6 7 8 8 6 3
0 0 0 0 0 1 1 2 3 3 2 1 0 1 3 8 9 7 8 9 6 4 6 9 10 11 12 11 11 12 12 10 7 5 5 6 6 7 7 8 7 6 4 1
0 0 0 0 0 1 1 1 2 2 2 0 0 0 3 7 7 6 6 7 6 5 6 9 10 10 9 9 10 11 11 10 8 5 4 4 5 7 8 8 6 4 2 1
0 0 0 1 1 1 1 1 1 3 3 1 0 1 3 5 6 5 6 7 7 7 8 11 12 9 8 8 9 10 10 10 9 5 3 4 5 6 7 7 4 2 1 0
Wind_Speed
14 13 13 13 13 11 11 11 12 10 8 6 7 7 6 6 6 5 5 5 5 6 6 6 6 6 6 7 7 6 6 5 4 3 3 3 2 3 3 3 4 4 2 2
14 16 16 13 10 11 13 13 12 9 8 7 8 8 6 6 6 4 4 4 5 5 6 6 6 6 6 7 7 6 6 5 4 3 3 2 2 3 3 3 4 4 3 2
15 11 10 10 11 12 12 12 11 10 11 9 9 9 5 6 6 5 4 4 5 6 6 6 7 6 7 7 7 6 5 5 4 4 3 2 2 1 2 4 4 4 4 3
13 13 11 12 13 12 10 11 11 11 12 8 9 8 6 7 7 5 4 4 4 5 7 7 7 7 7 7 7 6 5 4 4 3 3 3 3 2 2 2 3 4 4 3
13 13 12 13 12 11 11 11 11 12 12 12 10 9 5 6 6 5 4 5 5 5 6 7 7 7 8 8 8 7 6 5 4 4 4 3 2 2 2 2 3 3 3 3
16 15 13 12 11 10 10 11 12 11 9 11 10 9 6 4 4 5 5 5 5 5 5 6 7 8 7 7 7 8 7 5 5 4 4 3 2 2 2 2 3 3 2 3
15 14 11 9 9 9 10 9 7 7 7 8 7 6 3 2 4 4 3 4 4 4 5 6 7 8 7 7 7 7 7 6 5 5 4 4 3 3 3 2 2 2 2 2
13 10 7 8 9 9 10 10 8 8 9 8 6 5 1 2 5 6 4 4 5 3 4 6 6 6 7 7 7 7 7 6 5 5 4 3 3 3 2 2 2 1 1 1
10 9 8 9 9 10 11 10 11 11 13 11 6 3 4 3 5 5 5 6 5 4 4 6 6 5 6 6 6 6 6 5 5 5 4 3 3 2 2 2 2 1 1 1
10 12 11 9 8 10 10 9 6 7 9 10 8 5 2 4 3 4 4 5 5 4 4 5 6 5 5 5 5 5 5 5 5 4 4 4 3 2 2 2 2 1 1 1
10 10 11 10 9 9 9 9 8 7 8 9 8 3 4 4 3 3 3 4 5 4 4 5 6 5 5 5 5 5 5 5 5 5 4 3 3 2 2 2 1 1 1 1
6 6 10 12 10 8 9 9 8 8 9 9 8 3 4 4 4 3 2 4 4 3 3 4 6 6 5 5 5 5 4 5 5 4 4 3 2 2 2 2 1 1 2 2
4 5 9 10 8 7 8 8 9 8 8 8 8 3 2 3 3 2 2 4 4 3 2 3 5 5 5 5 4 4 4 4 4 4 4 4 3 2 2 2 2 2 2 2
3 6 10 12 10 8 9 10 10 9 7 8 9 6 2 2 1 2 3 4 4 4 3 3 4 4 4 4 4 4 5 4 4 4 4 3 3 3 2 2 2 2 2 3
4 8 12 14 15 13 11 11 11 11 9 10 9 7 3 2 2 2 4 5 4 3 3 4 3 3 4 4 4 4 4 4 4 4 4 4 3 3 3 2 3 2 3 3
3 7 11 13 14 14 12 11 10 9 9 9 8 6 2 0 2 2 3 4 4 3 3 3 3 3 3 3 3 3 3 4 4 3 4 4 4 4 3 3 3 2 3 3
6 7 10 12 13 13 11 7 7 7 7 7 6 3 1 1 2 3 3 3 3 3 3 3 3 2 2 2 2 2 2 3 3 3 3 3 3 3 3 3 3 3 2 2
7 7 8 11 11 13 4 4 5 6 4 4 2 3 3 3 3 3 3 3 3 3 3 2 2 2 2 2 2 2 2 2 3 3 3 3 3 3 2 2 2 2 1 2
7 7 8 9 11 10 5 2 4 5 2 3 4 4 4 3 2 4 3 3 3 3 3 3 2 2 2 1 1 1 1 2 2 3 3 3 3 3 3 3 2 2 2 3
7 7 8 9 10 9 3 3 3 4 1 5 4 4 3 3 0 1 2 2 3 4 3 3 2 2 1 1 1 1 2 2 3 3 3 2 2 2 2 2 2 2 2 3
7 7 9 10 10 5 4 5 3 3 2 5 5 4 3 2 2 1 1 2 3 3 3 3 2 1 1 1 2 2 2 2 3 3 3 2 2 2 3 2 2 3 3 3
5 5 6 7 8 4 6 5 4 3 3 4 5 4 3 2 2 2 2 2 2 3 3 2 2 2 2 2 2 2 2 2 2 2 3 2 2 3 3 3 3 3 3 3
3 2 2 2 1 3 5 5 4 3 4 5 5 4 3 2 1 1 1 2 2 2 2 1 1 2 2 2 2 3 2 2 2 2 2 2 3 2 2 3 4 3 3 4
2 2 2 1 1 2 3 4 5 5 4 5 4 3 2 2 1 1 1 1 1 1 1 1 1 2 2 3 3 3 2 2 2 3 3 3 3 3 3 3 4 4 4 4
6 4 2 1 1 1 1 4 5 5 4 5 5 4 2 2 2 1 1 1 0 0 1 2 2 3 3 3 3 3 3 3 3 3 3 4 4 4 4 4 3 4 2 2
5 4 4 3 4 4 4 3 4 4 4 4 4 3 3 1 1 1 1 0 1 1 1 2 3 4 3 3 3 3 3 3 3 4 5 4 4 4 4 4 4 4 4 4
Wind_Direction
228 231 238 242 245 258 271 272 271 271 262 256 256 257 231 208 222 210 214 208 195 175 165 153 150 150 142 139 145 153 154 152 161 159 170 170 166 161 155 152 144 149 160 158
238 237 244 249 257 261 265 272 277 288 290 270 263 263 240 205 218 216 221 213 185 162 159 151 150 146 144 143 144 152 156 160 172 160 165 167 173 178 157 142 143 159 160 169
244 251 254 257 257 257 264 272 280 285 283 272 275 265 239 220 208 203 213 204 174 166 160 160 163 158 154 151 150 154 155 157 169 167 161 158 149 188 158 155 158 164 166 166
259 260 256 256 258 262 269 276 280 277 273 265 251 263 229 210 195 189 200 202 182 166 154 157 165 164 162 154 149 142 145 148 161 171 170 173 166 181 177 160 157 161 167 172
259 260 257 259 265 267 273 281 280 275 278 276 264 264 243 218 195 183 190 196 182 161 151 157 164 161 158 154 148 146 147 150 157 172 169 179 186 177 169 158 150 163 174 185
264 263 259 260 271 274 275 275 274 270 265 263 261 260 250 229 192 177 177 172 159 153 151 150 151 150 155 155 152 151 151 153 157 170 176 180 189 181 171 169 170 181 179 193
262 257 258 257 260 268 271 271 274 274 260 261 260 257 254 172 155 136 147 147 141 140 134 136 148 154 160 158 153 153 153 157 165 171 179 184 196 198 194 200 206 200 195 193
268 262 252 248 252 262 262 264 267 277 280 279 263 249 209 108 120 122 122 124 130 139 135 138 141 150 159 157 153 152 155 158 168 175 178 187 196 211 205 202 220 220 236 235
279 277 272 259 247 256 264 264 278 282 281 283 272 229 138 139 128 123 131 131 141 160 161 137 133 140 146 150 151 155 153 160 169 174 172 185 191 203 214 208 208 231 246 253
271 286 276 266 260 251 257 273 278 277 288 287 279 271 160 159 142 134 142 142 139 152 154 135 135 133 133 140 142 150 153 162 166 173 182 187 180 191 204 208 207 203 219 262
272 279 280 270 255 262 260 258 262 272 272 281 285 291 97 135 133 140 145 127 132 141 146 139 138 139 135 141 150 154 156 162 169 173 172 174 172 190 196 191 199 195 206 226
275 279 280 272 269 261 257 262 263 268 277 280 283 290 76 104 122 137 126 112 120 126 146 145 142 144 143 148 153 156 165 170 171 171 165 168 164 167 164 174 194 207 217 238
309 279 274 265 250 254 270 268 267 270 274 273 274 269 81 90 101 118 112 109 116 122 124 139 143 150 152 152 153 157 167 168 165 168 168 164 160 163 177 195 203 218 228 242
272 264 263 270 280 285 275 276 274 270 273 274 268 258 227 224 145 157 127 122 132 149 150 134 139 149 149 151 157 167 171 168 165 163 168 165 173 179 193 212 216 228 233 243
258 260 263 271 278 275 270 268 270 267 268 274 280 277 264 210 185 172 145 139 158 157 144 140 137 142 151 161 166 175 175 168 164 167 176 179 177 184 194 212 225 234 240 247
244 271 276 274 273 274 268 265 269 273 272 270 273 282 330 238 137 130 136 143 153 155 157 148 143 136 148 160 167 165 170 161 161 179 185 184 184 186 195 209 220 228 240 245
253 263 273 273 274 273 264 273 277 276 284 287 286 301 330 30 98 122 138 138 148 151 152 145 141 142 145 156 149 156 161 153 159 180 197 184 189 193 196 208 208 222 240 248
257 267 271 271 271 266 281 329 309 292 298 322 348 13 28 44 80 100 106 106 98 100 106 117 132 136 130 129 141 154 168 164 177 190 202 192 195 204 207 214 221 229 243 255
228 247 261 266 265 263 261 313 312 293 300 15 19 8 29 49 77 92 87 87 94 101 103 112 120 128 133 146 148 154 175 178 196 207 207 204 201 209 214 218 221 223 245 246
224 231 246 259 265 269 304 337 307 271 228 36 20 6 14 30 326 40 69 76 84 96 103 115 132 141 147 145 153 188 197 205 220 220 216 212 208 213 226 226 225 230 248 250
228 233 242 259 262 266 348 342 301 262 19 2 360 359 11 34 7 9 79 80 84 102 115 123 140 156 169 168 175 208 220 234 237 224 220 214 208 211 221 225 226 234 248 251
242 243 243 252 256 261 357 354 15 37 9 345 352 356 21 61 59 60 89 92 93 111 121 145 176 177 171 176 190 215 232 245 248 238 227 216 208 229 230 220 232 236 248 245
276 317 303 300 307 13 22 31 28 34 15 355 350 357 30 65 52 39 83 111 123 127 137 170 211 191 182 187 206 219 228 237 243 246 240 236 228 226 226 229 229 228 230 242
318 350 272 259 102 28 24 23 23 14 5 352 343 352 25 44 59 55 54 111 144 163 173 208 239 229 221 212 218 223 227 234 234 242 244 243 236 232 228 235 232 233 228 237
330 319 298 272 5 1 39 12 4 359 353 348 350 346 23 51 72 80 84 96 154 202 213 225 235 241 239 228 222 219 216 222 239 244 243 245 241 236 233 234 244 243 244 233
324 328 317 322 342 329 334 357 346 326 332 339 334 345 17 43 88 109 83 12 281 248 252 251 248 246 241 239 230 220 219 219 229 244 243 240 244 241 230 226 232 241 232 227